[[{"header":{"parameterUnit":"m.s-1","parameterCategory":1,"la1":30.2991,"la2":30.254,"lo1":-89.0895,"lo2":-89.0444,"dy":0.0017,"dx":0.0017,"nx":28,"ny":28,"refTime":"2024-03-27T03:00:00:Z","depth":0,"parameterNumber":2,"parameterNumberName":"U-component_of_WINDS"},"data":[0,0,0,0,0,0,0,0,0,0,0,0,0,0,0,0,0,0,0,0,0,0,0,0,0,0,0,0,0,0,0,0,0,0,0,0,0,0,0,0,0,0,0,0,0,0,0,0,0,0,0,0,0,0,0,0,0,0,-0.6147,-0.6147,0,-0.6172,-0.6173,-0.6173,-0.6139,-0.6138,-0.6137,-0.6135,-0.6167,-0.6169,-0.6171,0,0,0,0,0,0,0,0,0,0,0,0,0,-0.6074,-0.6075,-0.6147,-0.6147,-0.6147,-0.6172,-0.6173,-0.6173,-0.6139,-0.6138,-0.6136,-0.6135,-0.6166,-0.6169,-0.6171,0,0,0,0,0,0,0,0,0,0,0,0,0,-0.6103,-0.6076,-0.6147,-0.6133,-0.6132,-0.6172,-0.6173,-0.6173,-0.614,-0.6138,-0.6136,-0.6134,-0.6165,-0.6168,-0.6171,-0.6227,0,0,-0.6181,-0.6182,0,0,0,0,0,0,0,0,-0.6102,-0.6106,-0.6135,-0.6134,-0.6133,-0.615,-0.6159,-0.6191,-0.614,-0.6137,-0.6135,-0.6133,-0.6163,-0.6166,-0.6175,-0.6229,-0.623,-0.6181,-0.6183,-0.6184,-0.6185,0,0,0,0,0,0,0,-0.61,-0.6105,-0.6157,-0.6135,-0.6134,-0.6128,-0.613,-0.6165,-0.6161,-0.6137,-0.6135,-0.6138,-0.6163,-0.6173,-0.6176,-0.623,-0.6181,-0.6183,-0.6185,-0.6186,-0.6334,-0.6336,0,0,0,0,0,0,-0.6098,-0.6103,-0.6156,-0.6158,-0.6112,-0.6131,-0.6133,-0.6147,-0.616,-0.616,-0.614,-0.6136,-0.6168,-0.6172,-0.6177,-0.6246,-0.6184,-0.6187,-0.6188,-0.6331,-0.6334,-0.6336,0,0,0,0,0,0,-0.6097,-0.6103,-0.6155,-0.613,-0.6136,-0.6134,-0.615,-0.6148,-0.6158,-0.6162,-0.6161,-0.615,-0.6167,-0.6173,-0.6215,-0.6246,-0.6188,-0.6191,-0.6329,-0.6332,-0.6335,-0.6382,0,0,0,0,0,0,-0.6095,-0.6103,-0.6123,-0.613,-0.6137,-0.6192,-0.6152,-0.615,-0.6163,-0.6159,-0.6172,-0.6172,-0.6166,-0.6211,-0.6218,-0.6249,-0.6193,-0.6326,-0.633,-0.6334,-0.6378,-0.6386,-0.6393,0,0,0,0,0,-0.6093,-0.6136,-0.6124,-0.6131,-0.6162,-0.6193,-0.6197,-0.6188,-0.6166,-0.6187,-0.6189,-0.6172,-0.6241,-0.6215,-0.6223,-0.6256,-0.6324,-0.6329,-0.6334,-0.6374,-0.6384,-0.6393,0,0,0,0,0,0,-0.6134,-0.6136,-0.6124,-0.617,-0.6182,-0.6187,-0.6214,-0.6199,-0.6219,-0.6214,-0.6203,-0.6207,-0.6253,-0.6258,-0.623,-0.6312,-0.6279,-0.6286,-0.6307,-0.6317,-0.6325,-0.6324,-0.6196,0,0,0,0,0,-0.6148,-0.6171,-0.6173,-0.6214,-0.622,-0.6216,-0.6229,-0.6221,-0.6233,-0.6238,-0.6244,-0.6258,-0.6283,-0.63,-0.6323,-0.6377,-0.6381,-0.6403,-0.6411,-0.6418,-0.6425,-0.6457,-0.6468,-0.6352,-0.6352,-0.6352,0,0,-0.6178,-0.6182,-0.6198,-0.6222,-0.623,-0.6257,-0.622,-0.625,-0.627,-0.6243,-0.6284,-0.6288,-0.6303,-0.6353,-0.6375,-0.6359,-0.6457,-0.6424,-0.6429,-0.6433,-0.6463,-0.6474,-0.6484,-0.6355,-0.6355,-0.6354,0,0,-0.6248,-0.6252,-0.6288,-0.6296,-0.6308,-0.6305,-0.6313,-0.6321,-0.6323,-0.6363,-0.6344,-0.6369,-0.6411,-0.6424,-0.6435,-0.651,-0.6496,-0.6517,-0.6561,-0.6592,-0.6601,-0.6609,-0.6639,-0.6649,-0.6523,-0.6524,-0.6524,0,-0.6285,-0.6322,-0.6308,-0.6339,-0.6352,-0.6326,-0.6364,-0.6373,-0.6393,-0.6403,-0.6384,-0.6438,-0.6446,-0.65,-0.6518,-0.6527,-0.6539,-0.6517,-0.66,-0.6609,-0.6616,-0.6644,-0.6655,-0.6526,-0.6526,-0.6526,-0.6526,0,-0.6369,-0.6395,-0.6423,-0.6441,-0.6456,-0.649,-0.6484,-0.6501,-0.6491,-0.6491,-0.6534,-0.6542,-0.6568,-0.6579,-0.657,-0.6632,-0.6622,-0.6602,-0.657,-0.663,-0.6657,-0.6667,-0.653,-0.6529,-0.6529,-0.6528,0,0,-0.6467,-0.6476,-0.6487,-0.6496,-0.6507,-0.6528,-0.6562,-0.6585,-0.6602,-0.6616,-0.6646,-0.6683,-0.6665,-0.6678,-0.667,-0.6697,-0.676,-0.6674,-0.6675,-0.6693,-0.6832,-0.685,-0.6862,-0.6749,-0.6751,-0.6752,-0.6832,0,-0.6539,-0.6596,-0.6584,-0.6641,-0.6667,-0.6643,-0.6673,-0.6685,-0.6685,-0.6709,-0.671,-0.6737,-0.6709,-0.6718,-0.6743,-0.6747,-0.6788,-0.674,-0.6781,-0.6782,-0.6781,-0.6876,-0.6894,-0.6969,-0.6842,-0.6844,-0.6845,0,-0.6631,-0.6647,-0.6706,-0.6715,-0.6725,-0.6752,-0.6774,-0.6795,-0.6808,-0.6807,-0.6822,-0.6809,-0.6846,-0.681,-0.6862,-0.683,-0.6845,-0.6849,-0.6852,-0.6858,-0.682,-0.6888,-0.6992,-0.7005,-0.686,-0.6859,-0.6858,0,-0.6701,-0.6737,-0.6778,-0.6786,-0.6796,-0.6816,-0.6821,-0.6832,-0.6847,-0.6866,-0.6877,-0.69,-0.6914,-0.6933,-0.6928,-0.6902,-0.6982,-0.6946,-0.6985,-0.6986,-0.7006,-0.7005,-0.7118,-0.701,-0.701,-0.701,-0.7009,0,-0.6784,-0.6822,-0.681,-0.6836,-0.6878,-0.6865,-0.6908,-0.6911,-0.6921,-0.6948,-0.6928,-0.6955,-0.6945,-0.6972,-0.6968,-0.7013,-0.7019,-0.7021,-0.702,-0.7025,-0.7025,-0.7037,-0.7033,-0.7013,-0.7012,-0.7011,-0.7011,0,-0.6871,-0.6864,-0.6907,-0.6912,-0.6914,-0.6946,-0.6952,-0.6977,-0.6975,-0.701,-0.7018,-0.7016,-0.7047,-0.7042,-0.7077,-0.7074,-0.7132,-0.7123,-0.7127,-0.7127,-0.7167,-0.7165,-0.7294,-0.7312,-0.719,-0.7191,-0.7192,0,-0.6926,-0.6955,-0.6963,-0.6979,-0.6986,-0.7012,-0.7027,-0.7015,-0.7032,-0.7049,-0.7073,-0.7101,-0.7124,-0.7174,-0.7178,-0.7204,-0.7198,-0.7241,-0.7202,-0.7207,-0.7203,-0.7203,-0.7207,-0.7251,-0.7252,-0.7253,-0.7254,0,-0.7027,-0.7022,-0.7043,-0.7065,-0.7083,-0.7099,-0.7114,-0.7129,-0.7118,-0.7139,-0.7169,-0.7186,-0.722,-0.725,-0.7275,-0.7283,-0.7269,-0.7266,-0.7277,-0.7284,-0.7286,-0.7289,-0.7152,-0.7264,-0.7263,-0.7262,-0.7261,-0.7261,-0.7102,-0.7127,-0.7137,-0.7163,-0.7172,-0.7186,-0.721,-0.7211,-0.7235,-0.7262,-0.7253,-0.7288,-0.7302,-0.7334,-0.7345,-0.7374,-0.7358,-0.7373,-0.7378,-0.7383,-0.739,-0.7279,-0.7378,-0.7377,-0.7377,-0.7377,-0.7377,0,-0.7205,-0.7209,-0.7233,-0.7253,-0.7274,-0.7254,-0.727,-0.7289,-0.732,-0.7333,-0.7355,-0.7391,-0.7419,-0.7425,-0.7452,-0.7475,-0.7469,-0.7483,-0.7483,-0.7486,-0.74,-0.7389,-0.7488,-0.7487,-0.7487,-0.7487,-0.7487,-0.7487,-0.7261,-0.7303,-0.7299,-0.7347,-0.7352,-0.7385,-0.7396,-0.741,-0.742,-0.7461,-0.7484,-0.7486,-0.7497,-0.7525,-0.7552,-0.7553,-0.7566,-0.7583,-0.7582,-0.7503,-0.7492,-0.7481,-0.7471,-0.7585,-0.7585,-0.7666,-0.7667,-0.7667]},{"header":{"parameterUnit":"m.s-1","parameterCategory":1,"la1":30.2991,"la2":30.254,"lo1":-89.0895,"lo2":-89.0444,"dy":0.0017,"dx":0.0017,"nx":28,"ny":28,"refTime":"2024-03-27T03:00:00:Z","depth":0,"parameterNumber":3,"parameterNumberName":"V-component_of_WINDS"},"data":[0,0,0,0,0,0,0,0,0,0,0,0,0,0,0,0,0,0,0,0,0,0,0,0,0,0,0,0,0,0,0,0,0,0,0,0,0,0,0,0,0,0,0,0,0,0,0,0,0,0,0,0,0,0,0,0,0,0,1.8695,1.8693,0,1.8502,1.85,1.8498,1.8415,1.8416,1.8416,1.8417,1.8208,1.8202,1.8196,0,0,0,0,0,0,0,0,0,0,0,0,0,1.898,1.8975,1.8695,1.8693,1.8691,1.8503,1.85,1.8497,1.8415,1.8416,1.8416,1.8417,1.8209,1.8203,1.8195,0,0,0,0,0,0,0,0,0,0,0,0,0,1.8829,1.8974,1.8696,1.8627,1.8619,1.8503,1.85,1.8497,1.8415,1.8416,1.8416,1.8417,1.8212,1.8203,1.8194,1.8129,0,0,1.8167,1.8164,0,0,0,0,0,0,0,0,1.8837,1.8818,1.864,1.8632,1.8623,1.8484,1.8524,1.8373,1.8415,1.8492,1.8417,1.8417,1.8298,1.8282,1.8245,1.8119,1.811,1.8167,1.8161,1.8157,1.8155,0,0,0,0,0,0,0,1.8848,1.8826,1.8619,1.8637,1.8627,1.8602,1.8581,1.8495,1.8394,1.8486,1.8479,1.8458,1.8294,1.8253,1.8239,1.8107,1.8167,1.8159,1.8154,1.815,1.7914,1.7913,0,0,0,0,0,0,1.8871,1.8835,1.8625,1.8613,1.8734,1.8597,1.8573,1.8528,1.8395,1.8376,1.8458,1.8455,1.8268,1.825,1.8231,1.8143,1.8158,1.8149,1.8144,1.7915,1.7914,1.7913,0,0,0,0,0,0,1.8878,1.8853,1.8632,1.8722,1.8692,1.8591,1.8541,1.8523,1.8483,1.8374,1.8355,1.8436,1.8268,1.8244,1.8155,1.8135,1.8145,1.8137,1.7916,1.7914,1.7913,1.7969,0,0,0,0,0,0,1.8886,1.8856,1.8833,1.8723,1.8688,1.8563,1.8539,1.8519,1.847,1.8464,1.8349,1.833,1.8266,1.8169,1.8146,1.8123,1.813,1.7917,1.7915,1.7914,1.7969,1.797,1.7971,0,0,0,0,0,1.8897,1.8855,1.8833,1.8808,1.8658,1.8563,1.8542,1.8474,1.8469,1.8442,1.8372,1.8333,1.8142,1.816,1.8134,1.8108,1.7918,1.7916,1.7914,1.7968,1.797,1.7971,0,0,0,0,0,0,1.8963,1.8839,1.8813,1.8735,1.8661,1.8549,1.8514,1.8478,1.84,1.8398,1.8312,1.8286,1.8204,1.8147,1.817,1.8036,1.8026,1.8019,1.8076,1.8077,1.8078,1.8092,1.8123,0,0,0,0,0,1.8969,1.8906,1.88,1.8741,1.8705,1.8617,1.8572,1.8526,1.8443,1.841,1.8333,1.8251,1.8172,1.8121,1.8043,1.796,1.7931,1.7929,1.793,1.7932,1.7926,1.7874,1.7871,1.7905,1.7905,1.7906,0,0,1.898,1.8904,1.8869,1.8752,1.8689,1.8621,1.859,1.852,1.8468,1.8398,1.831,1.8251,1.8153,1.8067,1.8025,1.8016,1.791,1.7929,1.7931,1.7924,1.7872,1.7868,1.7866,1.7904,1.7904,1.7904,0,0,1.8965,1.8903,1.8846,1.8784,1.8689,1.863,1.8617,1.851,1.8469,1.838,1.8326,1.826,1.8126,1.8058,1.8006,1.7964,1.7924,1.794,1.7945,1.7896,1.7893,1.789,1.7872,1.7867,1.7934,1.7935,1.7935,0,1.8989,1.8889,1.8821,1.8754,1.8702,1.8639,1.8578,1.8519,1.8403,1.8366,1.836,1.819,1.812,1.8015,1.8005,1.7966,1.7944,1.7952,1.79,1.7896,1.7892,1.7874,1.7868,1.7937,1.7937,1.7936,1.7936,0,1.8922,1.8853,1.8818,1.871,1.8654,1.859,1.8508,1.8459,1.8417,1.8358,1.8265,1.8179,1.8081,1.8053,1.801,1.7941,1.7938,1.7918,1.7905,1.7893,1.7874,1.7866,1.794,1.794,1.7939,1.7938,0,0,1.8944,1.8799,1.8787,1.8735,1.8626,1.8569,1.85,1.8407,1.8365,1.8286,1.8224,1.8112,1.8091,1.8032,1.798,1.7938,1.7906,1.7921,1.7917,1.7919,1.782,1.7835,1.7828,1.788,1.7878,1.7877,1.7827,0,1.8912,1.8792,1.8727,1.8631,1.8564,1.8502,1.8442,1.8365,1.8307,1.8238,1.8172,1.8094,1.8074,1.8037,1.7993,1.792,1.7884,1.7922,1.7816,1.7813,1.7841,1.7819,1.7835,1.7792,1.7819,1.7818,1.7817,0,1.886,1.8784,1.8683,1.8579,1.8548,1.8496,1.8404,1.834,1.825,1.8211,1.8145,1.8094,1.8015,1.801,1.7897,1.7925,1.7877,1.7834,1.7831,1.7816,1.7813,1.7801,1.7777,1.777,1.7805,1.7806,1.7807,0,1.8883,1.8756,1.8678,1.8636,1.8513,1.8477,1.8423,1.8335,1.8282,1.82,1.8164,1.8073,1.8023,1.7951,1.7875,1.788,1.7768,1.7759,1.7729,1.7731,1.7707,1.7709,1.7673,1.7681,1.7681,1.7681,1.7681,0,1.8854,1.8793,1.8687,1.8639,1.8567,1.8492,1.8422,1.8363,1.8284,1.822,1.816,1.81,1.8005,1.7932,1.7872,1.7785,1.7763,1.7725,1.771,1.773,1.7734,1.7695,1.7695,1.7679,1.768,1.768,1.768,0,1.8868,1.8794,1.8705,1.8596,1.8567,1.8519,1.8423,1.8371,1.831,1.823,1.8206,1.8108,1.8019,1.7937,1.7818,1.7777,1.7688,1.7669,1.772,1.7711,1.7685,1.7688,1.7621,1.7606,1.7627,1.7627,1.7627,0,1.8853,1.8806,1.8692,1.8646,1.8594,1.8522,1.8468,1.839,1.8335,1.8229,1.8189,1.8096,1.8017,1.7877,1.7792,1.7699,1.7676,1.7659,1.7661,1.7682,1.7672,1.7675,1.7668,1.766,1.766,1.766,1.766,0,1.8834,1.88,1.8727,1.864,1.8578,1.8505,1.843,1.8395,1.8302,1.8243,1.8153,1.8092,1.7971,1.7877,1.7775,1.7714,1.7669,1.766,1.7648,1.7667,1.7697,1.7677,1.772,1.7662,1.7661,1.7661,1.7661,1.7661,1.8831,1.8785,1.8698,1.8617,1.8552,1.8483,1.8429,1.8361,1.8286,1.8183,1.814,1.8047,1.7954,1.7813,1.7752,1.7675,1.7666,1.7649,1.7644,1.7641,1.7643,1.7711,1.7657,1.7656,1.7656,1.7656,1.7656,0,1.8808,1.8748,1.8675,1.8572,1.8507,1.8475,1.8389,1.8336,1.8257,1.8176,1.81,1.7994,1.7902,1.7811,1.7713,1.7669,1.7646,1.7646,1.7647,1.7632,1.7659,1.7678,1.7666,1.7666,1.7666,1.7666,1.7666,1.7666,1.8788,1.8707,1.8661,1.8546,1.8485,1.8396,1.8349,1.8283,1.8218,1.8103,1.8028,1.797,1.7883,1.7778,1.7691,1.7666,1.7632,1.7637,1.7605,1.7631,1.7631,1.7631,1.7649,1.7631,1.763,1.7585,1.7585,1.7584]}]]